RH
14 16 14 12 12 12 14 15 18 22 26 33 36 35 36 38 38 37 38 38 37 36 35 34 32 33 44 51 51 53 55 55 56 57 58 58 60 58 52 47 43 43 43 35 33 35 35 36 35 32 31 30 30 30 29 30 30 29 29 28 28 28 28 28 26 25 25 25 25 26 25 25 25 27 29 30 31 33 35 38 40 40 43 45 47 47
15 17 14 11 10 11 12 13 15 18 22 30 34 34 36 36 34 35 36 37 36 34 34 34 31 32 42 50 51 52 54 55 55 56 57 57 59 59 54 50 47 44 40 35 33 35 35 36 35 34 32 31 30 30 28 28 28 28 27 27 26 27 26 24 23 23 22 21 23 24 25 27 27 27 28 29 30 31 33 36 38 40 41 43 44 45
16 15 13 11 11 10 11 12 13 15 19 27 33 34 35 33 32 34 36 36 37 34 32 34 31 31 39 45 48 50 52 53 54 54 56 56 58 59 55 51 49 45 40 37 33 32 33 35 34 34 33 31 29 29 28 26 27 27 26 25 25 25 24 22 22 21 21 21 22 24 26 28 28 28 28 29 32 33 34 34 35 37 38 39 40 41
17 14 11 11 11 10 11 11 11 14 17 23 30 32 31 31 31 34 36 36 36 33 32 34 33 33 39 43 43 46 49 52 53 53 54 56 57 57 56 53 50 47 44 42 37 30 30 33 34 33 31 30 29 29 28 26 25 25 24 23 23 22 21 20 20 20 21 23 24 25 27 29 29 29 28 29 31 32 32 31 31 31 33 35 36 37
15 13 12 11 12 11 10 11 11 14 17 21 27 28 28 30 31 33 37 37 35 32 30 33 34 36 40 41 41 44 47 48 49 51 53 55 56 55 56 54 49 47 46 45 41 33 28 29 32 31 29 28 28 26 26 25 23 22 21 21 21 20 19 19 19 19 22 23 24 25 26 28 28 27 26 25 25 26 27 26 26 27 29 31 33 35
13 12 12 12 12 12 11 11 11 11 15 19 22 23 25 29 31 32 37 38 36 33 31 31 34 37 40 39 40 43 45 46 47 49 52 54 55 54 55 54 50 46 46 45 41 36 30 27 29 30 29 27 26 24 23 22 22 20 20 21 21 20 19 18 18 19 21 22 23 24 24 23 23 23 22 22 23 24 25 25 25 26 27 28 30 32
12 11 12 13 12 12 12 11 10 10 14 17 16 18 24 28 30 32 35 37 37 36 34 32 32 35 37 37 39 42 43 45 46 48 50 52 54 53 53 54 50 46 46 46 42 37 32 28 27 29 27 25 22 20 20 20 20 20 21 21 21 21 19 19 19 19 20 20 21 22 21 21 21 20 20 22 24 25 26 27 27 28 28 28 28 29
12 12 12 13 13 12 12 11 10 10 13 15 12 15 22 25 28 30 31 33 34 35 34 32 31 30 30 32 36 40 41 44 46 47 48 50 51 52 52 53 51 46 45 46 44 40 36 30 26 26 25 20 17 17 18 19 19 20 20 20 21 21 21 20 20 20 20 19 19 20 20 21 20 19 20 23 25 26 27 28 28 28 28 29 28 28
11 12 11 11 12 13 11 10 10 9 11 13 12 15 18 20 24 27 28 29 31 32 30 30 31 28 26 31 35 37 40 42 43 44 47 48 50 51 51 52 52 48 45 45 45 43 41 34 27 24 22 18 15 15 17 17 17 18 19 20 20 21 21 21 21 20 20 19 19 19 20 20 20 20 21 23 25 25 26 27 28 28 29 30 29 28
12 11 10 11 12 11 10 9 9 9 9 11 11 14 16 17 20 25 26 27 29 29 24 26 30 27 25 29 32 34 37 39 40 42 44 47 48 50 50 50 51 50 47 45 45 44 43 37 28 23 22 19 17 17 16 16 16 17 19 20 20 20 20 20 20 21 20 20 19 19 19 19 19 20 21 22 24 24 24 25 27 28 29 30 30 30
13 12 12 12 12 10 9 9 9 9 10 10 10 11 13 14 17 23 26 26 26 23 20 22 28 26 23 25 28 29 31 34 37 41 43 44 46 48 49 48 49 50 49 46 45 44 44 40 32 28 27 24 22 21 20 18 18 18 18 19 20 19 19 20 20 20 20 20 20 19 18 18 18 19 20 21 22 22 22 22 23 26 28 30 31 32
14 14 15 14 12 11 11 11 9 10 11 11 11 11 12 15 16 18 22 22 21 19 17 20 25 25 21 21 25 25 25 29 34 37 39 41 44 46 47 47 47 48 49 48 46 45 46 43 37 33 32 30 27 25 24 22 20 19 18 19 19 19 20 20 20 20 21 21 20 20 19 18 18 18 19 20 20 21 21 20 20 22 25 28 30 32
16 15 15 14 13 12 13 14 12 12 12 13 14 13 14 17 16 16 18 18 17 17 17 19 22 22 19 20 23 23 23 26 30 34 36 37 41 44 45 46 46 47 48 48 47 46 45 43 40 36 34 34 32 28 25 23 22 21 20 19 19 19 19 20 20 21 21 21 21 20 19 19 19 19 19 19 19 20 20 20 20 20 21 25 28 30
18 16 15 14 14 13 14 15 14 14 14 13 15 15 16 18 18 18 19 17 15 16 15 18 22 21 18 19 19 19 21 24 26 31 33 34 36 40 42 43 43 45 47 48 48 47 44 41 40 39 36 36 37 34 30 26 23 21 20 20 19 19 19 19 20 20 21 21 21 21 21 21 21 20 20 20 20 20 20 19 19 18 19 21 25 28
20 19 16 14 14 14 14 14 13 15 15 13 14 15 16 17 18 17 17 16 15 15 15 16 20 20 17 17 17 17 19 21 23 25 28 30 33 35 39 40 41 42 44 46 48 47 46 43 41 41 38 36 37 37 37 34 30 26 23 21 20 19 20 20 20 20 20 21 23 24 24 24 24 23 21 21 21 21 21 19 19 18 17 19 22 27
19 19 16 14 14 15 14 13 13 14 15 14 13 15 15 15 15 14 15 15 14 14 15 16 19 21 18 17 18 17 18 20 21 22 24 26 29 32 35 36 37 39 40 44 46 47 47 47 45 43 41 39 37 37 38 38 37 35 30 26 23 21 22 23 23 22 21 21 22 24 25 26 27 26 24 23 22 21 21 20 19 17 17 18 20 25
19 18 16 14 15 15 13 14 13 14 16 16 15 14 13 12 12 14 15 14 12 14 16 17 17 18 17 16 17 16 17 19 20 21 22 22 25 27 30 32 34 35 36 39 42 44 45 47 48 46 44 42 41 39 38 37 38 37 36 33 30 27 26 27 27 26 24 23 23 23 25 26 27 28 27 26 24 23 22 21 20 19 18 18 19 23
19 18 17 16 16 14 14 15 14 13 15 16 15 13 12 13 13 16 16 14 13 16 16 15 15 15 16 17 18 16 16 17 18 20 21 21 22 23 24 28 31 32 32 33 37 41 43 45 47 47 46 45 44 43 40 38 38 39 38 36 35 34 32 29 28 27 26 26 25 24 24 25 27 29 29 28 27 26 24 22 20 19 19 19 20 23
20 19 18 16 15 15 15 16 16 14 13 14 15 13 14 15 15 16 18 17 16 17 16 14 15 15 15 16 17 15 14 16 17 19 20 20 21 20 21 23 25 27 27 29 33 38 41 43 44 46 46 45 46 45 42 40 41 41 40 39 38 37 35 32 32 30 28 26 25 25 24 24 26 28 29 29 29 29 27 24 21 20 19 19 22 24
21 21 20 17 16 16 16 17 17 16 14 14 15 14 15 16 15 15 17 16 17 18 17 14 13 13 13 13 14 14 14 16 17 18 20 19 19 20 20 20 21 22 23 27 31 35 37 40 42 44 44 44 45 46 44 43 43 43 42 41 40 39 38 37 37 35 32 29 27 26 25 25 25 27 29 30 31 30 29 26 23 21 19 20 23 25
21 21 21 20 18 18 18 18 16 15 14 14 15 16 15 16 15 15 16 15 15 17 18 16 12 10 12 13 11 11 13 15 16 17 18 18 18 18 19 20 20 20 22 28 31 33 35 37 40 43 43 44 45 46 45 44 43 43 43 43 42 41 40 39 37 36 35 34 32 31 29 27 27 27 28 30 31 31 30 28 26 23 21 21 24 26
27 24 21 20 20 19 18 17 15 15 14 13 15 15 14 15 16 17 18 16 14 16 18 17 12 9 12 13 10 10 11 12 14 15 17 17 16 16 17 18 19 20 23 28 30 31 34 36 39 42 43 44 45 46 45 44 43 43 43 43 43 43 42 39 37 36 36 37 36 34 31 30 29 28 27 27 28 29 29 29 28 26 24 24 24 27
32 31 24 21 21 19 19 18 16 16 15 14 14 14 14 15 16 17 18 16 14 16 18 18 15 11 12 12 11 10 10 10 11 12 13 14 14 15 17 17 18 18 21 27 30 31 33 35 38 40 43 45 45 45 44 43 43 44 43 43 44 44 42 39 37 36 37 39 37 35 34 32 30 29 27 26 26 27 28 29 29 28 27 26 27 28
33 33 28 24 23 21 19 19 18 17 16 16 16 15 14 15 14 15 17 17 16 15 16 18 16 12 13 15 13 11 11 11 10 10 11 12 12 13 15 16 17 17 19 23 27 29 31 34 37 39 41 44 44 45 45 43 44 44 43 44 45 44 42 40 38 38 39 39 38 38 38 35 32 29 27 26 25 25 26 28 29 29 28 29 30 31
34 35 30 25 24 23 22 22 20 18 18 18 17 16 15 15 14 14 16 18 17 15 15 17 15 13 16 19 15 13 13 12 11 10 11 12 12 12 13 15 16 17 18 21 23 25 27 31 36 37 38 41 43 43 44 44 44 44 43 45 45 44 44 42 40 39 40 39 39 40 39 37 34 30 28 27 26 25 25 27 28 28 28 30 33 33
37 38 33 28 28 26 26 27 26 23 21 19 18 17 16 15 15 14 15 17 18 19 16 15 16 16 16 15 13 13 13 12 11 11 11 11 11 11 12 14 15 16 18 19 21 23 23 27 34 36 36 40 42 43 44 45 44 43 43 44 45 46 46 44 41 41 41 41 40 40 39 38 35 31 30 30 29 26 25 24 26 27 28 31 35 36
40 41 37 33 33 32 31 32 31 28 26 23 20 18 17 17 15 14 15 15 18 21 17 14 17 16 13 11 11 12 13 12 11 11 11 11 10 10 11 13 15 15 17 20 21 23 23 25 31 34 34 38 42 43 45 46 46 44 43 44 47 49 47 44 42 43 43 42 41 40 38 38 37 35 33 33 32 30 26 23 23 24 27 31 35 37
43 42 40 37 38 38 37 33 30 30 30 28 25 21 18 17 16 15 15 15 17 19 17 15 17 15 12 12 12 12 12 13 11 11 11 10 10 10 11 13 14 13 15 19 21 23 25 26 29 31 31 34 40 43 45 45 44 43 43 43 45 47 46 44 43 43 43 43 42 40 39 38 39 39 37 35 34 32 29 25 23 22 24 27 32 37
45 45 43 40 38 37 36 34 31 31 31 30 27 24 20 18 16 15 14 15 16 16 13 14 18 16 14 14 13 12 12 12 10 10 9 9 8 9 9 10 12 12 13 17 19 22 26 27 28 30 29 31 37 41 42 42 41 41 41 42 43 44 43 42 42 41 42 42 40 38 38 39 41 42 40 38 36 34 32 29 25 24 25 26 30 35
46 50 47 42 39 37 34 34 32 31 30 29 27 26 22 19 17 14 15 15 16 15 13 14 18 17 14 14 13 12 12 12 11 9 9 8 7 8 8 9 11 12 13 17 19 22 25 25 25 27 28 30 35 39 40 39 39 39 39 40 41 41 40 40 40 40 40 40 37 37 38 40 41 42 42 40 37 35 34 31 28 26 27 28 30 33
45 50 48 43 43 41 36 34 33 31 31 30 29 27 24 21 19 16 16 16 16 17 15 14 18 18 15 15 14 13 12 12 12 11 10 9 8 8 9 10 11 13 13 16 19 22 24 25 24 25 26 28 32 34 35 37 38 38 38 40 41 41 41 41 40 40 40 38 37 38 39 40 41 42 42 41 39 37 36 34 31 28 27 27 28 29
48 50 49 47 48 45 39 36 34 31 31 30 28 27 26 24 22 19 18 18 17 17 16 14 16 16 15 16 15 14 15 15 14 14 12 10 9 9 10 10 11 13 13 16 19 22 23 26 27 26 25 26 29 30 31 34 36 38 39 40 41 42 43 43 41 41 40 38 38 40 39 39 41 42 42 42 41 40 39 37 34 30 28 26 26 26
52 51 50 51 53 49 42 39 37 34 34 30 25 26 26 23 23 22 20 19 17 16 16 14 13 13 14 16 16 15 16 16 16 15 13 11 11 11 11 11 10 11 13 15 19 21 22 25 29 30 28 27 29 30 32 33 35 36 38 39 40 43 44 44 42 41 40 40 40 40 40 41 42 43 43 43 44 43 42 40 37 34 31 28 26 25
54 53 53 54 56 53 45 41 42 41 37 29 27 33 32 25 23 22 20 19 18 16 15 13 13 13 14 16 16 16 16 16 16 16 16 15 13 11 11 10 10 11 12 13 16 19 21 22 25 29 29 28 27 28 31 33 35 36 38 39 41 42 43 43 42 42 41 41 41 40 41 42 42 43 43 45 46 46 43 40 39 37 35 32 29 26
55 55 56 55 56 55 48 46 49 45 34 29 31 37 37 33 30 25 21 19 18 16 15 15 15 15 15 16 16 16 16 18 20 21 21 21 17 14 12 10 10 11 12 12 14 16 19 20 21 23 26 28 28 27 29 32 35 36 38 39 39 40 41 41 41 41 42 42 41 41 41 42 42 44 45 46 47 47 45 41 40 39 38 36 33 30
57 56 56 56 58 57 54 54 53 41 31 32 37 39 40 40 39 34 26 19 18 20 19 17 17 17 16 17 16 15 17 21 24 26 26 25 21 17 13 11 11 12 13 14 15 15 17 19 19 21 25 29 32 32 32 33 34 35 36 37 37 38 40 41 41 42 43 43 41 41 41 41 43 46 48 50 50 50 47 43 41 40 40 38 37 34
54 56 56 57 58 58 57 55 50 41 36 40 44 45 45 43 42 41 37 29 26 29 25 19 18 18 18 18 17 17 20 23 25 27 28 27 24 20 16 13 13 14 15 17 17 17 19 20 19 20 24 28 31 33 33 34 35 36 36 37 37 38 40 42 42 43 44 43 41 41 42 42 44 46 49 52 53 52 50 47 43 42 42 41 39 38
48 50 52 55 57 59 58 55 54 53 49 47 50 51 50 47 42 43 43 36 33 35 33 26 21 19 19 21 20 21 24 24 23 26 28 27 26 23 20 17 15 16 16 17 18 19 21 23 22 20 23 27 30 32 33 32 32 34 36 37 37 38 40 40 41 43 43 41 40 42 43 43 44 46 48 49 49 48 49 48 46 44 44 43 41 40
47 46 46 50 56 60 60 59 59 57 50 49 54 54 52 52 49 45 43 37 33 38 39 35 30 24 21 22 24 24 23 21 22 27 30 28 27 26 23 20 19 19 18 19 20 20 21 25 26 24 24 26 29 32 33 31 31 31 32 34 36 38 38 38 39 41 41 39 40 43 44 44 45 45 46 46 46 46 47 49 48 47 47 45 43 41
50 50 51 53 54 57 60 61 60 55 49 51 55 53 51 54 53 49 44 38 37 40 40 39 39 33 25 24 25 24 22 20 21 27 32 30 28 26 25 23 21 20 20 20 21 22 22 24 25 25 25 25 26 29 30 30 31 33 32 32 34 36 36 36 38 40 40 40 42 43 44 45 45 45 45 44 44 45 48 51 52 51 50 49 47 45
53 54 58 58 54 55 60 61 58 52 50 55 57 53 52 54 52 48 44 41 42 42 40 40 43 40 33 28 24 24 26 27 27 30 33 32 30 28 27 25 23 22 21 21 23 25 25 23 22 22 23 24 26 28 29 29 30 33 33 33 31 30 32 35 37 40 41 41 42 43 44 45 45 45 44 43 43 44 47 50 52 52 52 52 51 49
59 58 61 60 56 58 61 62 61 55 52 57 60 56 55 58 56 50 45 45 46 44 43 43 44 43 41 34 29 31 36 36 34 34 34 33 31 31 29 27 24 23 22 22 24 28 30 26 23 22 22 23 25 27 29 29 29 31 32 32 30 30 32 36 38 40 41 42 43 45 45 44 44 44 43 43 44 45 45 47 50 53 54 54 53 52
64 64 66 62 58 62 67 70 70 62 54 58 64 63 63 66 61 53 49 50 49 46 45 46 44 44 45 43 40 42 42 40 38 37 36 35 34 32 30 28 25 23 21 21 22 26 27 26 25 25 24 24 25 27 29 30 31 31 31 30 31 32 34 36 37 39 41 42 43 44 43 43 43 43 43 44 46 47 47 45 47 50 53 54 54 54
68 68 70 66 62 65 69 69 68 62 57 61 68 70 72 71 62 54 54 55 54 49 47 47 46 46 47 46 46 46 45 44 43 41 39 39 36 34 32 30 27 25 23 21 21 22 24 24 26 28 30 29 29 30 31 32 34 35 35 34 34 35 35 36 37 39 39 39 40 40 40 41 43 44 44 43 45 47 48 47 45 45 46 49 51 54
71 67 69 70 71 74 71 63 61 62 63 65 67 72 76 74 66 62 62 60 58 54 51 49 49 49 48 48 50 50 48 47 47 44 43 42 39 36 35 33 30 28 26 25 24 23 23 24 26 28 31 33 34 35 36 36 37 38 38 38 38 38 38 38 38 38 39 39 40 40 40 41 43 44 45 45 46 47 48 48 49 49 48 48 48 48
69 70 73 72 72 79 79 69 63 63 64 65 69 73 77 77 72 70 69 67 62 57 55 54 53 52 51 51 52 54 53 51 49 46 43 41 39 36 34 32 30 29 27 25 25 25 25 25 25 25 26 28 30 32 35 37 39 40 41 41 40 40 39 38 37 37 37 38 39 40 42 42 43 44 45 46 47 47 47 48 49 50 52 52 50 48
64 72 80 78 74 80 84 77 67 64 63 65 69 71 74 77 77 74 72 72 69 62 58 57 57 55 54 54 54 55 56 55 51 46 43 41 39 37 35 32 30 28 26 25 25 25 24 24 24 24 25 25 26 27 28 31 34 37 39 40 39 38 37 36 35 35 36 37 38 39 40 40 40 41 42 43 44 44 46 48 49 48 49 51 52 54
66 72 80 81 79 82 84 79 72 67 63 62 63 67 73 76 77 76 74 73 74 71 66 62 61 58 54 53 54 55 56 56 52 48 45 44 42 41 39 37 34 32 30 29 27 26 25 24 24 24 25 25 25 25 26 27 28 30 32 34 35 35 36 36 36 36 38 39 39 39 38 37 36 36 37 38 40 41 44 47 49 49 48 46 47 51
71 71 74 80 84 84 81 79 75 70 66 65 64 66 71 73 75 78 77 74 76 78 75 71 69 64 58 53 52 53 56 56 54 52 50 48 47 46 44 41 39 36 35 33 32 30 29 28 28 27 27 27 27 27 27 27 28 28 28 29 31 32 34 36 37 38 39 40 40 40 39 38 37 37 36 36 38 39 41 43 44 46 47 46 45 45
74 68 66 76 87 85 77 76 76 72 70 71 68 65 68 70 74 77 78 78 81 82 80 77 75 70 64 59 53 53 56 58 58 56 55 52 51 51 48 45 42 39 38 36 35 33 32 31 31 32 32 32 30 30 30 29 29 29 29 30 30 32 33 35 36 37 39 40 41 41 41 40 39 39 38 38 38 38 39 39 40 40 41 42 44 45
78 70 66 72 82 82 75 76 78 76 73 70 67 65 65 66 68 72 75 79 84 85 82 81 80 74 70 66 59 55 59 65 66 64 61 56 53 52 51 48 46 44 43 41 39 38 37 36 36 36 35 35 33 33 33 33 32 32 32 32 33 33 33 33 34 34 35 37 39 41 42 42 41 40 40 41 41 42 43 41 40 40 40 41 42 43